SV2MJJ Weather Reports


Display with metric or nautical units.
time (UTC)temp
F
wind
direction
speed
MPH
gust
MPH
rain 1hr
in
rain 24hr
in
rain mn
in
humidity
%
barometer
mb
20220817010545 70 310 4.0 9.0 0.00 0.21 0.00 75 1007.8
20220817010043 70 311 2.0 5.0 0.00 0.21 0.00 75 1008.0
20220817005603 70 311 3.0 5.0 0.00 0.21 0.00 74 1007.9
20220817005108 70 311 1.0 4.0 0.00 0.21 0.00 74 1007.9
20220817004621 71 311 0.0 5.0 0.00 0.21 0.00 73 1007.9
20220817004038 71 311 2.0 5.0 0.00 0.21 0.00 73 1007.8
20220817003540 71 311 1.0 4.0 0.00 0.21 0.00 72 1007.9
20220817003111 72 311 2.0 4.0 0.00 0.21 0.00 71 1007.9
20220817002552 72 311 0.0 3.0 0.00 0.21 0.00 70 1007.9
20220817002118 72 311 1.0 4.0 0.00 0.21 0.00 71 1008.0
20220817001547 72 311 1.0 4.0 0.00 0.21 0.00 71 1008.1
20220817001047 72 311 0.0 5.0 0.00 0.21 0.00 71 1008.0
20220817000549 72 311 2.0 6.0 0.00 0.21 0.00 70 1007.9
20220817000051 72 311 0.0 6.0 0.00 0.21 0.00 70 1007.8
20220816235621 73 311 3.0 6.0 0.00 0.21 0.00 69 1007.8
20220816235101 72 311 2.0 8.0 0.00 0.21 0.00 69 1007.7
20220816234544 72 310 3.0 8.0 0.00 0.21 0.00 69 1007.7
20220816234112 72 311 0.0 5.0 0.00 0.21 0.00 70 1007.7
20220816233535 73 311 0.0 8.0 0.00 0.21 0.00 69 1007.6
20220816233039 73 311 2.0 9.0 0.00 0.21 0.00 69 1007.7
20220816232629 73 311 5.0 9.0 0.00 0.21 0.00 69 1007.7
20220816232547 73 311 5.0 9.0 0.00 0.21 0.00 69 1007.7
20220816232032 73 307 6.0 9.0 0.00 0.21 0.00 69 1007.6
20220816231538 73 305 5.0 8.0 0.00 0.21 0.00 69 1007.6
20220816231057 73 303 3.0 9.0 0.00 0.21 0.00 69 1007.6
20220816230610 73 303 4.0 11.0 0.00 0.21 0.00 69 1007.7
20220816230110 73 299 7.0 12.0 0.00 0.21 0.00 68 1007.6
20220816225557 73 298 8.0 12.0 0.00 0.21 0.00 68 1007.6
20220816225101 73 300 9.0 12.0 0.00 0.21 0.00 68 1007.6
20220816224625 73 298 8.0 11.0 0.00 0.21 0.00 69 1007.8
20220816224042 73 296 7.0 11.0 0.00 0.21 0.00 69 1007.9
20220816223618 73 298 6.0 10.0 0.00 0.21 0.00 69 1008.0
20220816223054 73 296 6.0 12.0 0.00 0.21 0.00 70 1007.9
20220816222627 73 296 8.0 12.0 0.00 0.21 0.00 71 1008.1
20220816222047 72 296 7.0 11.0 0.00 0.21 0.00 71 1008.1
20220816221546 72 302 8.0 11.0 0.00 0.21 0.00 72 1008.2
20220816221046 72 302 5.0 11.0 0.00 0.21 0.00 72 1008.3
20220816220619 72 302 7.0 9.0 0.00 0.21 0.00 72 1008.3
20220816220034 72 304 4.0 9.0 0.00 0.21 0.00 72 1008.5
20220816215535 72 304 5.0 11.0 0.00 0.21 0.00 72 1008.5
20220816215037 72 298 7.0 12.0 0.00 0.21 0.00 73 1008.5
20220816214544 72 296 7.0 11.0 0.00 0.21 0.00 73 1008.6
20220816214137 72 294 8.0 11.0 0.00 0.21 0.00 74 1008.5
20220816213555 72 296 7.0 10.0 0.00 0.21 0.00 74 1008.6
20220816213112 72 296 7.0 10.0 0.00 0.21 0.00 74 1008.7
20220816212554 72 296 6.0 9.0 0.00 0.21 0.00 73 1008.7
20220816212043 72 296 6.0 10.0 0.00 0.21 0.00 74 1008.7
20220816211542 71 297 7.0 11.0 0.00 0.21 0.00 75 1008.7
20220816211134 71 298 7.0 11.0 0.00 0.21 0.00 75 1008.9
20220816210535 71 296 5.0 12.0 0.00 0.21 0.00 76 1008.8
20220816210049 71 298 7.0 12.0 0.00 0.21 0.21 76 1008.8
20220816205551 71 297 5.0 12.0 0.00 0.21 0.21 76 1008.8
20220816205034 71 294 6.0 11.0 0.00 0.21 0.21 76 1008.8
20220816204545 71 300 5.0 11.0 0.00 0.21 0.21 76 1008.9
20220816204056 71 298 3.0 9.0 0.00 0.21 0.21 77 1009.0
20220816203605 71 297 4.0 10.0 0.00 0.21 0.21 76 1009.0
20220816203131 72 296 7.0 10.0 0.00 0.21 0.21 76 1009.0
20220816202631 72 297 6.0 10.0 0.00 0.21 0.21 76 1009.1
20220816202549 72 297 6.0 10.0 0.00 0.21 0.21 76 1009.1
20220816202057 72 297 3.0 6.0 0.00 0.21 0.21 76 1009.1
20220816201539 72 297 4.0 7.0 0.00 0.21 0.21 77 1009.1
20220816201102 72 297 2.0 8.0 0.00 0.21 0.21 76 1009.1
20220816200550 72 296 5.0 8.0 0.00 0.21 0.21 75 1009.2
20220816200050 72 297 3.0 6.0 0.00 0.21 0.21 75 1009.2
20220816195616 72 297 4.0 7.0 0.00 0.21 0.21 75 1009.3
20220816195104 72 297 0.0 8.0 0.00 0.21 0.21 75 1009.4
20220816194546 72 297 4.0 8.0 0.00 0.21 0.21 76 1009.3
20220816194046 72 298 2.0 4.0 0.00 0.21 0.21 77 1009.5
20220816193556 72 298 2.0 4.0 0.00 0.21 0.21 77 1009.4
20220816193056 72 298 1.0 10.0 0.00 0.21 0.21 77 1009.5
20220816192537 72 298 4.0 12.0 0.00 0.21 0.21 77 1009.5
20220816192046 72 290 7.0 12.0 0.00 0.21 0.21 77 1009.5
20220816191611 72 298 3.0 8.0 0.00 0.21 0.21 78 1009.4
20220816191044 72 298 2.0 9.0 0.00 0.21 0.21 78 1009.6
20220816190612 72 298 5.0 11.0 0.00 0.21 0.21 77 1009.7
20220816190051 72 297 8.0 11.0 0.00 0.21 0.21 76 1009.6
20220816185551 73 302 4.0 9.0 0.00 0.21 0.21 76 1009.7
20220816185110 73 302 5.0 12.0 0.00 0.21 0.21 75 1009.6
20220816184609 73 298 8.0 12.0 0.00 0.21 0.21 74 1009.6
20220816184056 74 304 5.0 9.0 0.00 0.21 0.21 75 1009.8
20220816183640 74 305 4.0 9.0 0.00 0.21 0.21 75 1009.6
20220816183057 75 304 5.0 8.0 0.00 0.21 0.21 74 1009.7
20220816182536 75 305 0.0 3.0 0.00 0.21 0.21 74 1009.7
20220816182059 75 305 0.0 0.0 0.00 0.21 0.21 74 1009.8
20220816181558 75 305 0.0 4.0 0.00 0.21 0.21 73 1009.7
20220816181123 76 305 0.0 10.0 0.00 0.21 0.21 72 1009.5
20220816180541 76 305 4.0 10.0 0.00 0.21 0.21 71 1009.5
20220816180132 76 275 0.0 4.0 0.00 0.21 0.21 70 1009.2
20220816175537 76 275 0.0 5.0 0.00 0.21 0.21 69 1009.2
20220816175048 76 275 3.0 8.0 0.00 0.21 0.21 69 1009.3
20220816174043 76 277 1.0 4.0 0.00 0.21 0.21 69 1009.1
20220816173547 75 277 1.0 7.0 0.00 0.21 0.21 69 1009.1
20220816173045 75 277 1.0 7.0 0.00 0.21 0.21 70 1009.2
20220816172633 75 273 1.0 4.0 0.01 0.21 0.21 71 1009.0
20220816172053 74 274 0.0 8.0 0.02 0.21 0.21 71 1008.7
20220816171110 73 271 0.0 6.0 0.02 0.21 0.21 73 1008.1